Regional Weather Roundup
Issued by NWS Kansas City/Pleasant Hill, MO

Home | Current Version | Previous Version | Text Only | Print | Product List | Glossary On
Versions: 1 2 3 4 5 6 7 8 9 10 11 12 13 14 15 16 17 18 19 20 21 22 23 24 25 26 27 28 29 30 31 32 33 34 35 36 37 38 39 40 41 42 43 44 45 46 47 48 49 50
000
ASUS43 KEAX 030310
RWREAX

WEATHER ROUNDUP FOR EASTERN KANSAS AND NORTHWEST MISSOURI
NATIONAL WEATHER SERVICE KANSAS CITY/PLEASANT HILL MO
1000 PM CDT TUE SEP 02 2014

KSZ040-057-103>105-MOZ028-029-037-043-030400-
...KANSAS CITY METROPOLITAN AREA...

CITY           SKY/WX    TMP DP  RH WIND       PRES   REMARKS
K.C. INTL      CLEAR     74  67  78 CALM      29.98R
K.C. DOWNTOWN  CLEAR     75  67  76 E3        29.97R
LEES SUMMIT    CLEAR     73  69  87 SE5       29.99R
OLATHE - IXD   CLEAR     72  66  81 SE8       29.99R
OLATHE - OJC   CLEAR     70  68  93 CALM      29.98R
LAWRENCE       CLEAR     70  66  87 CALM      29.97R

$$

MOZ001>008-011>017-020>025-030>033-038>040-044>046-053-054-030400-
...NORTHERN AND CENTRAL MISSOURI...

CITY           SKY/WX    TMP DP  RH WIND       PRES   REMARKS
ST. JOSEPH     CLEAR     68  65  90 CALM      29.96S
MOSBY          CLEAR     70  68  94 CALM      29.97R
WHITEMAN AFB   CLEAR     70  69  95 S6        29.99R
CLINTON        CLEAR     72  72 100 SE3       30.01R
SEDALIA        CLEAR     70  68  93 S7        30.01R
WARSAW         NOT AVBL
MARSHALL       CLEAR     73  72  94 CALM      30.00R
CHILLICOTHE      N/A     68  66  93 CALM      29.99R
MOBERLY        CLEAR     68  63  83 S5        30.00R
KIRKSVILLE     CLEAR     65  64  97 CALM      30.00R

$$

MOZ041-047>049-056>058-063>065-088>090-097-030400-
...EASTERN AND SOUTHERN MISSOURI...

CITY           SKY/WX    TMP DP  RH WIND       PRES   REMARKS
ST. LOUIS INTL PTCLDY    76  67  73 CALM      30.01R
SPIRIT OF STL  CLEAR     70  68  93 CALM      30.00R
COLUMBIA       CLEAR     70  68  93 SE3       30.01R
JEFFERSON CITY CLEAR     70  68  93 SE5       30.00R
MEXICO         CLEAR    N/A N/A N/A S3        30.00R
HANNIBAL       PTCLDY    70  66  88 S5        30.00R
ROLLA          CLEAR     66  64  93 CALM      30.01R FOG
LEBANON        CLEAR     70  66  88 S5        30.05R
OSAGE BEACH    CLEAR     68  64  88 CALM      30.01R
SPRINGFIELD    CLEAR     71  66  84 S6        30.03R
BRANSON        CLEAR     68  66  94 CALM      30.05R
NEVADA         CLEAR     70  66  88 SE5       30.01S
JOPLIN         CLOUDY    74  68  81 SE5       30.01R
WEST PLAINS    CLEAR     66  32  28 CALM      30.06R

$$

IAZ060-094-KSZ022-034>040-054-083-096-NEZ052-066-093-030400-
...KANSAS...SOUTHEAST NEBRASKA AND IOWA...

CITY           SKY/WX    TMP DP  RH WIND       PRES   REMARKS
TOPEKA         CLEAR     73  69  87 E5        29.96R
MANHATTAN      CLEAR     75  68  78 CALM      29.94R
EMPORIA        CLEAR     72  68  87 SE8       29.97R
CHANUTE        CLEAR     74  68  81 SE6       29.98R
WICHITA        MOCLDY    79  69  71 SE13      29.92S
OMAHA          CLEAR     69  59  70 SE7       29.96R
LINCOLN        CLEAR     72  59  63 SE8       29.95S
FALLS CITY     CLEAR     70  64  81 SE6       29.95R
LAMONI         CLEAR     68  59  73 SE3       29.98S
DES MOINES     CLEAR     71  61  70 S3        29.95S

$$



USA.gov is the U.S. government's official web portal to all federal, state and local government web resources and services.